Powrót do katalogu

CZ-6A DEB

AktywnySSO
NORAD 56606·DEBRIS·🇨🇳 China

Wystrzelony Nov 11, 2022 z Taiyuan Satellite Launch Center

Loading…

Następne Przeloty (najbliższe 24 godziny)

TLE

ŚwieżeSource: Space-Track

Epoka: Sep 14, 2026, 10:56 UTC

1 56606U 22151AEE 26257.45614234 -.00000012  00000-0  17623-4 0  9992
2 56606  98.8523 255.4830 0047129  88.4886 272.1682 14.09507464174394

Śledź CZ-6A DEB w czasie rzeczywistym z AllMySat

Download on the App Store